TimeEDT,TemperatureF,Dew PointF,Humidity,Sea Level PressureIn,VisibilityMPH,Wind Direction,Wind SpeedMPH,Gust SpeedMPH,PrecipitationIn,Events,Conditions,WindDirDegrees,DateUTC
12:53 AM,36.0,27.0,70,29.83,10.0,WSW,11.5,-,N/A,,Overcast,250,2013-03-14 04:53:00
1:53 AM,34.0,21.0,59,29.85,10.0,West,8.1,16.1,0.00,,Overcast,270,2013-03-14 05:53:00
2:53 AM,34.0,17.1,50,29.86,10.0,West,9.2,-,N/A,,Overcast,270,2013-03-14 06:53:00
3:53 AM,32.0,17.1,54,29.85,10.0,West,9.2,-,N/A,,Mostly Cloudy,260,2013-03-14 07:53:00
4:53 AM,30.9,14.0,50,29.85,10.0,West,12.7,-,N/A,,Clear,260,2013-03-14 08:53:00
5:53 AM,30.0,12.0,47,29.86,10.0,WNW,8.1,-,N/A,,Scattered Clouds,290,2013-03-14 09:53:00
6:53 AM,28.9,14.0,54,29.86,10.0,West,16.1,-,N/A,,Overcast,270,2013-03-14 10:53:00
7:53 AM,28.0,9.0,45,29.89,10.0,WNW,16.1,24.2,N/A,,Mostly Cloudy,290,2013-03-14 11:53:00
8:53 AM,27.0,7.0,43,29.91,10.0,West,18.4,27.6,N/A,,Partly Cloudy,280,2013-03-14 12:53:00
9:53 AM,30.0,8.1,40,29.92,10.0,West,15.0,27.6,N/A,,Mostly Cloudy,280,2013-03-14 13:53:00
10:53 AM,28.9,8.1,41,29.91,10.0,NW,11.5,24.2,N/A,,Overcast,320,2013-03-14 14:53:00
11:53 AM,30.9,10.0,42,29.90,10.0,West,19.6,25.3,N/A,,Overcast,280,2013-03-14 15:53:00
12:53 PM,30.9,10.0,42,29.88,10.0,WNW,12.7,23.0,N/A,,Overcast,300,2013-03-14 16:53:00
1:53 PM,34.0,10.9,38,29.87,10.0,NW,17.3,26.5,N/A,,Overcast,310,2013-03-14 17:53:00
2:53 PM,33.1,10.0,38,29.85,10.0,WNW,10.4,23.0,N/A,,Overcast,290,2013-03-14 18:53:00
3:53 PM,37.0,12.0,36,29.83,10.0,West,17.3,24.2,N/A,,Overcast,270,2013-03-14 19:53:00
4:53 PM,35.1,10.0,35,29.84,10.0,WNW,20.7,32.2,N/A,,Mostly Cloudy,300,2013-03-14 20:53:00
5:53 PM,35.1,10.9,37,29.84,10.0,WNW,11.5,21.9,N/A,,Partly Cloudy,300,2013-03-14 21:53:00
6:53 PM,35.1,6.1,30,29.86,10.0,WNW,10.4,17.3,N/A,,Overcast,290,2013-03-14 22:53:00
7:53 PM,34.0,5.0,30,29.88,10.0,NW,10.4,-,N/A,,Overcast,310,2013-03-14 23:53:00
8:53 PM,33.1,8.1,35,29.89,10.0,NW,6.9,-,N/A,,Overcast,320,2013-03-15 00:53:00
9:53 PM,32.0,7.0,35,29.91,10.0,NW,11.5,-,N/A,,Overcast,310,2013-03-15 01:53:00
10:53 PM,32.0,6.1,34,29.91,10.0,WNW,13.8,20.7,N/A,,Overcast,290,2013-03-15 02:53:00
11:53 PM,30.9,7.0,37,29.91,10.0,WNW,11.5,-,N/A,,Scattered Clouds,290,2013-03-15 03:53:00